SCP
0 0 0 0 0 0 0 0 0 0 0 0 0 1 1 1 1 0 0 1 1 1 1 1 1 2 1 1 1 1 1 1 1 1 1 1 1 1 1 1 1 0 1 1 1 1 1 1 1
0 0 0 0 0 0 0 0 0 0 0 0 1 1 1 1 1 1 1 1 1 1 1 1 1 2 1 1 1 1 1 1 1 1 1 1 1 1 1 1 1 1 1 1 1 1 1 1 1
0 0 0 0 0 0 0 0 0 1 1 1 1 1 1 1 1 1 1 1 1 1 1 1 1 2 1 1 1 1 1 1 1 1 1 1 1 1 1 1 1 1 1 1 1 1 1 1 1
0 0 0 0 0 0 0 0 0 1 1 1 1 1 1 1 1 1 1 2 2 2 1 1 1 1 1 1 1 1 1 1 1 1 1 1 1 1 1 1 1 1 1 1 1 1 1 1 1
0 0 0 0 0 0 0 0 0 1 1 1 1 1 1 1 2 1 2 2 2 2 2 2 2 2 1 1 1 1 1 1 1 1 1 1 1 1 1 1 1 1 1 1 1 1 1 1 1
0 0 0 0 0 0 0 0 0 1 1 1 1 1 1 1 2 2 2 2 2 2 2 2 2 2 2 1 1 1 1 1 1 1 1 1 1 1 1 1 1 1 1 1 1 1 0 0 0
0 0 0 0 0 0 0 0 1 1 1 1 1 1 1 1 1 2 2 2 1 1 2 2 2 2 2 1 1 1 1 2 2 1 1 1 1 1 1 1 1 1 1 1 1 1 0 0 0
0 0 0 0 0 0 0 1 1 1 1 1 1 1 1 1 1 1 2 2 1 1 1 1 1 1 1 1 1 1 1 1 2 2 2 2 1 1 1 1 1 1 1 1 1 1 0 0 0
0 0 0 0 0 0 0 1 1 1 1 1 1 1 1 2 2 2 2 1 1 1 1 1 1 1 1 1 2 2 2 2 2 2 2 2 2 2 1 1 1 1 1 1 1 1 0 0 0
0 0 0 0 0 0 0 1 1 1 1 1 1 2 2 2 2 2 1 1 1 1 1 1 1 1 1 1 2 2 2 2 2 2 2 2 2 2 2 2 1 1 1 1 1 1 1 1 1
0 0 0 0 0 0 0 0 1 1 1 1 2 2 3 2 2 2 1 1 1 0 0 1 1 1 1 2 2 2 3 3 2 2 2 3 2 2 2 2 2 2 2 1 1 1 1 1 1
0 0 0 0 0 0 0 1 1 1 1 1 2 2 3 2 2 2 1 1 1 1 1 1 1 1 1 2 2 3 3 3 3 3 3 3 3 3 3 3 3 3 3 2 2 1 1 1 1
0 0 0 0 0 0 1 1 1 2 2 2 2 2 2 2 2 2 2 1 1 1 1 1 1 1 2 2 3 3 4 4 3 3 3 3 3 3 3 3 2 2 2 2 2 1 1 1 1
0 0 0 0 0 0 1 1 2 2 2 2 2 2 2 2 2 2 2 2 1 1 1 1 1 1 2 2 3 4 4 4 4 3 3 3 3 3 3 2 2 2 2 2 1 1 1 1 1
0 0 0 0 0 0 1 1 1 2 2 2 2 2 2 2 2 3 2 2 1 1 1 1 1 1 2 3 4 4 4 4 3 3 3 3 4 3 3 2 2 1 1 1 1 1 1 1 1
0 0 0 0 0 0 0 1 1 1 2 2 2 2 2 2 2 2 2 2 1 1 1 1 1 2 2 3 4 4 4 3 3 3 4 4 4 3 3 2 2 2 2 2 1 1 1 1 1
0 0 0 0 0 0 0 0 1 1 1 2 2 2 2 2 2 2 2 1 1 1 1 1 2 2 3 4 4 4 3 2 2 2 3 3 3 3 3 2 2 2 2 1 1 1 1 1 1
0 0 0 0 0 0 1 1 1 1 1 1 2 2 2 2 1 1 1 1 1 1 1 2 2 2 3 4 4 3 2 2 2 2 2 2 3 3 2 2 2 2 2 1 1 1 1 1 1
0 0 0 0 0 0 1 1 1 1 1 1 1 1 1 1 1 1 1 2 1 1 1 2 2 3 3 3 3 2 2 2 2 2 2 2 2 2 2 1 1 1 1 1 1 1 1 2 3
0 0 0 0 0 0 1 1 1 1 1 1 1 1 1 2 2 2 2 2 2 2 2 2 3 3 3 3 3 2 2 2 2 2 2 2 2 2 2 1 1 1 1 1 1 1 2 3 5
0 0 0 0 0 0 1 1 1 1 1 1 1 2 2 2 2 2 2 2 2 2 2 2 3 3 4 3 3 2 2 2 2 2 2 2 2 2 2 2 2 2 2 2 1 1 1 2 3
0 0 0 0 0 0 0 0 0 1 1 1 2 2 3 2 2 2 3 3 3 3 3 3 3 3 4 4 3 3 2 2 2 2 2 1 2 2 2 3 2 2 2 2 2 1 1 1 1
0 0 0 0 0 0 0 0 0 1 1 1 2 2 2 2 2 2 3 3 3 3 3 4 4 4 4 4 4 4 3 3 3 3 2 2 2 3 3 3 3 3 2 2 2 1 1 1 1
0 0 0 0 0 0 0 0 0 1 1 1 2 2 2 2 2 2 3 3 3 3 4 5 5 5 5 5 6 5 5 4 4 4 4 3 3 4 4 3 3 3 3 3 2 2 1 1 1
0 0 0 0 0 0 0 0 1 1 1 2 2 2 2 1 2 3 3 3 3 3 4 5 5 5 5 5 6 6 6 6 5 5 5 5 4 4 4 4 3 3 3 3 2 2 2 1 1
0 0 0 0 0 0 0 1 1 1 2 2 2 2 2 1 2 3 4 3 3 3 4 4 5 5 5 5 5 6 7 6 6 6 6 5 5 5 5 4 3 3 3 3 3 2 2 2 1
0 0 0 0 0 0 0 1 1 1 2 2 2 2 2 2 2 3 4 4 4 4 4 4 4 4 5 5 4 4 5 6 6 6 7 6 6 5 5 4 4 3 3 3 3 3 3 2 2
0 0 0 0 0 0 0 1 1 1 1 2 1 1 1 1 2 3 4 5 6 5 4 4 4 4 4 4 3 3 3 4 5 6 7 6 6 5 5 5 4 4 4 4 4 4 3 2 2
0 0 0 0 0 0 0 1 1 1 1 1 1 1 1 1 2 2 4 6 6 6 5 4 3 3 3 3 3 2 2 3 4 5 6 5 5 5 5 5 5 5 5 5 5 5 4 3 2
0 0 0 0 0 0 0 1 1 1 1 1 1 1 1 1 2 2 3 5 6 5 4 4 3 2 2 2 2 1 1 2 2 3 4 5 5 5 5 5 5 5 5 5 5 5 4 3 2
Wind_Speed
5 5 3 2 4 6 3 3 1 2 2 1 3 5 5 3 1 2 1 6 7 7 6 8 10 10 10 10 10 10 10 10 10 10 10 11 11 11 11 11 11 12 11 11 11 10 10 11 11
4 4 1 3 6 4 3 3 1 0 2 2 4 5 5 3 2 4 3 5 8 7 5 7 10 10 10 10 9 9 10 10 10 10 10 11 11 11 11 12 11 11 11 11 11 10 10 11 11
3 2 3 5 4 3 2 2 1 1 2 2 3 4 4 2 3 4 4 9 8 6 4 6 11 10 10 9 9 9 9 9 9 9 10 10 10 10 11 11 11 11 10 10 11 10 10 10 10
2 3 4 5 2 2 2 2 1 1 2 3 4 4 3 2 4 5 9 10 8 6 4 6 11 10 9 9 8 8 8 8 8 9 9 9 9 9 10 10 10 10 10 10 10 10 10 9 8
3 4 5 3 2 3 2 1 1 1 1 2 4 4 2 3 7 10 10 9 8 6 4 5 9 9 8 8 7 7 7 7 8 8 8 8 8 8 8 9 9 9 9 9 9 9 8 8 7
4 5 5 1 3 3 2 1 1 2 2 2 4 4 1 2 7 9 8 7 7 6 5 5 8 9 8 8 7 6 6 6 6 7 7 7 7 7 7 7 8 8 8 8 8 7 7 7 7
5 4 3 1 2 3 1 1 2 2 2 3 4 4 1 3 4 7 7 6 5 5 5 4 4 5 7 7 6 5 5 5 6 6 6 6 6 6 6 6 7 7 7 7 7 6 5 5 5
5 5 2 1 2 3 1 1 1 2 2 3 5 6 5 5 7 8 7 5 4 4 3 3 3 3 3 3 5 5 5 5 5 6 5 5 5 5 5 5 5 6 6 5 5 5 4 4 4
4 5 2 4 4 3 1 0 0 1 4 2 2 4 5 12 11 9 6 4 4 4 3 3 3 3 2 2 4 3 4 3 3 3 4 3 1 1 2 3 4 4 5 4 4 4 3 3 3
5 3 6 5 4 3 2 1 2 2 2 1 3 5 11 13 12 10 9 8 7 6 5 4 4 3 3 2 2 1 1 1 2 1 2 1 1 1 1 1 2 2 3 3 3 3 2 1 1
4 5 4 3 3 2 2 1 2 5 2 5 7 10 13 12 10 10 9 8 8 6 5 5 4 3 3 2 2 1 1 1 1 1 1 1 1 1 1 1 0 0 1 1 1 1 1 1 1
3 4 3 3 2 2 3 3 2 4 6 5 10 13 14 13 11 10 10 8 6 5 6 5 4 4 3 2 2 2 1 1 1 1 1 2 1 1 0 1 0 1 1 1 1 1 1 2 2
2 3 2 2 2 2 2 2 3 3 1 6 11 12 13 13 10 8 7 7 6 5 6 5 5 5 4 3 2 2 2 1 1 1 1 2 2 1 1 0 0 1 1 1 1 1 1 1 1
2 2 2 2 1 1 2 1 1 3 3 7 11 12 12 12 11 8 7 6 7 7 6 5 5 5 4 4 3 2 2 1 1 1 1 2 2 2 1 1 1 1 1 1 1 1 1 1 1
0 1 3 2 0 1 3 2 4 3 5 7 9 10 10 9 10 10 10 9 8 7 6 6 5 5 5 4 4 2 2 2 2 1 1 1 2 2 1 1 1 0 1 1 1 1 1 1 1
2 2 1 4 0 1 4 5 6 3 7 8 8 9 8 7 8 8 8 7 7 6 6 6 6 6 5 4 3 2 2 2 2 1 1 1 1 2 2 1 1 0 1 1 1 1 1 1 1
3 1 2 4 1 2 3 5 5 4 6 8 8 8 8 7 7 7 8 8 7 7 7 6 5 6 5 4 3 3 2 2 1 1 1 1 1 2 2 1 1 1 1 1 1 1 1 1 1
3 2 2 4 2 2 2 6 5 4 7 7 7 7 8 8 9 7 6 6 6 6 6 6 5 5 5 4 3 2 2 1 1 1 1 1 1 2 2 1 1 1 1 1 1 1 1 1 1
3 3 4 5 3 2 4 6 6 4 5 6 6 7 8 9 6 5 5 6 5 5 5 6 6 6 5 4 3 3 2 1 1 1 1 1 1 2 2 1 1 1 1 1 2 1 1 0 1
3 2 4 4 1 2 3 5 4 4 7 8 9 9 8 6 3 5 6 6 7 7 6 6 7 7 6 4 3 2 2 2 1 0 0 1 1 2 2 2 1 1 1 1 1 1 1 0 1
4 5 5 4 2 2 0 5 3 3 2 4 5 6 6 8 8 7 7 8 7 8 8 7 7 6 5 5 4 3 3 2 1 1 0 1 1 1 2 2 2 1 1 1 1 1 2 1 0
6 7 6 4 2 2 1 3 6 3 3 4 5 5 6 6 7 7 8 8 8 8 7 6 6 6 5 6 5 5 4 3 2 1 1 0 0 1 1 2 2 2 2 2 2 1 1 2 1
6 2 3 2 3 0 1 2 7 1 3 7 6 6 6 6 7 8 8 9 7 6 6 6 6 5 5 5 6 5 4 3 2 1 1 0 0 0 1 1 1 1 1 1 1 2 2 2 2
4 5 5 5 4 1 3 4 7 4 6 5 5 5 5 5 6 6 5 6 5 5 5 6 6 5 5 6 5 5 5 4 4 2 2 1 0 0 0 1 1 1 1 1 2 2 2 2 2
4 6 3 3 2 5 2 3 8 6 5 5 6 5 4 4 5 6 6 7 7 7 7 6 7 6 5 6 5 5 5 5 5 4 3 2 1 1 1 1 1 1 1 1 1 1 2 2 2
4 8 8 5 5 4 1 5 7 4 3 1 2 3 2 3 4 5 6 7 7 7 7 7 7 6 5 6 5 5 5 4 3 3 3 2 2 2 1 1 1 1 1 1 1 1 1 1 2
5 3 5 6 2 1 4 5 6 2 2 1 1 1 2 3 4 4 4 5 6 7 7 7 7 6 5 5 5 4 4 4 4 3 3 2 2 1 1 1 1 0 0 1 1 1 1 1 1
4 7 5 6 5 3 4 3 4 4 3 2 1 1 1 2 3 4 4 5 5 6 5 5 6 6 4 4 4 4 4 4 4 3 3 3 2 1 1 1 1 1 1 1 1 1 1 1 1
3 3 4 4 5 6 3 7 5 6 5 4 4 3 3 3 3 3 4 4 4 5 5 5 5 4 4 4 3 3 3 3 3 3 3 3 2 2 2 1 1 1 1 1 1 1 1 2 1
3 5 7 5 3 4 4 8 3 3 4 3 3 2 2 2 2 2 3 4 4 4 5 6 5 5 4 4 3 4 3 3 3 3 3 3 3 2 2 2 1 1 1 1 1 1 1 2 2
Wind_Direction
143 131 129 101 55 49 17 317 304 343 25 30 78 91 98 90 142 159 113 129 130 137 149 152 148 141 135 130 125 121 117 113 110 109 112 117 118 119 121 124 126 125 121 119 115 111 111 112 113
135 143 111 65 73 51 318 300 321 278 155 128 76 75 74 63 68 109 131 136 132 137 142 152 150 144 139 134 131 126 122 119 116 114 114 116 119 119 121 126 128 127 125 124 120 114 110 113 113
159 169 86 70 85 151 257 276 204 81 119 107 78 65 82 115 132 148 153 136 125 133 142 159 151 147 142 138 134 129 127 124 122 120 120 119 118 119 121 125 128 127 127 127 123 117 112 108 107
124 55 53 67 84 225 222 249 146 82 43 52 91 73 63 90 146 142 136 135 131 138 148 162 154 152 147 143 139 134 131 129 128 127 126 124 122 122 124 125 128 129 129 125 124 121 117 113 112
68 74 59 44 311 274 266 267 137 120 81 68 97 92 43 17 107 124 134 138 141 146 154 162 158 156 153 148 144 140 136 133 134 134 133 131 128 127 128 128 128 128 130 129 126 122 124 122 119
58 65 75 24 294 292 283 215 120 90 101 99 106 106 66 98 121 134 134 137 144 150 154 157 163 162 158 153 148 146 144 140 140 142 142 138 135 133 132 132 132 132 135 134 132 129 135 132 128
101 92 128 191 280 300 280 62 128 130 136 156 132 111 115 138 136 130 126 127 136 149 153 154 162 165 163 158 156 152 149 148 147 149 147 144 142 137 133 137 136 137 138 138 137 134 133 138 137
123 102 107 221 236 264 254 16 149 126 157 128 125 143 182 178 139 119 111 115 130 145 157 157 155 148 150 158 164 160 155 149 148 149 149 149 147 142 142 141 143 146 146 147 142 140 137 136 138
92 82 187 216 206 234 203 112 3 82 113 108 136 161 162 141 134 124 121 128 152 167 174 173 167 158 153 161 172 162 161 152 143 144 144 135 103 105 139 147 151 156 157 156 150 143 141 139 139
96 142 220 217 201 200 197 163 160 93 98 98 76 87 124 139 148 151 158 168 179 188 191 184 178 172 166 175 139 122 133 117 113 105 110 97 91 90 129 130 160 169 168 166 161 154 142 139 97
146 189 225 240 214 188 182 151 134 134 193 203 167 148 144 151 160 168 175 179 188 188 189 184 180 168 171 161 131 121 110 108 109 115 110 97 85 67 73 67 27 75 146 120 89 77 96 115 120
168 233 218 238 190 171 176 157 149 178 216 175 153 152 152 161 175 181 181 184 183 180 190 187 180 173 174 163 147 144 141 137 139 147 140 128 120 103 94 110 89 75 82 95 84 83 85 109 128
200 252 246 238 218 183 149 179 177 228 231 123 133 146 158 168 179 185 181 176 175 186 191 190 179 177 172 164 172 162 169 171 160 151 153 151 153 148 124 129 116 84 84 99 100 99 88 99 128
215 233 292 297 238 175 158 224 142 244 138 137 149 160 172 176 178 178 174 180 187 192 192 184 179 176 166 166 173 169 168 168 153 162 174 166 157 144 138 128 115 102 103 109 104 119 120 119 126
183 20 344 324 203 194 110 338 240 220 146 151 162 170 180 184 180 184 186 187 190 188 182 179 180 172 171 171 173 163 159 149 150 157 148 147 149 146 145 127 114 119 123 120 106 102 101 121 125
71 63 325 291 238 164 132 246 256 180 162 171 176 179 185 189 192 193 189 188 186 176 175 180 181 171 172 165 156 144 141 138 142 136 128 140 151 150 145 147 149 151 117 117 129 128 121 125 138
41 145 233 289 258 124 149 242 261 194 181 190 188 189 191 193 203 200 190 187 182 177 173 171 169 164 165 155 143 132 127 135 142 138 137 149 157 150 148 160 157 131 121 123 174 140 161 169 181
217 204 228 247 254 125 205 246 258 208 194 201 196 196 196 198 207 197 185 180 174 173 171 165 161 154 147 137 124 113 109 119 126 138 155 154 151 144 146 153 141 126 123 128 135 136 131 144 180
177 188 240 254 241 176 234 255 258 219 200 202 202 199 202 208 202 169 170 166 159 162 163 162 159 155 148 145 149 148 154 142 129 153 161 166 161 148 148 145 126 130 152 179 162 137 126 112 98
185 221 251 282 279 182 243 272 265 219 209 202 201 201 205 204 179 176 173 172 174 175 169 165 166 164 164 163 154 143 132 132 136 126 116 190 181 165 168 160 147 152 159 128 128 136 136 112 99
216 201 218 226 333 9 38 310 295 271 242 212 209 208 202 199 193 187 185 183 177 182 180 175 170 166 163 150 126 106 86 75 82 90 220 265 168 156 162 157 159 175 175 180 178 157 150 163 142
239 222 198 189 131 280 135 272 285 267 278 234 219 213 215 207 196 190 187 187 189 188 176 166 162 160 159 152 151 148 151 166 189 185 195 236 125 141 149 149 158 176 172 174 199 176 167 160 181
216 191 162 166 155 242 318 195 283 296 251 245 230 218 219 205 195 194 195 191 186 175 166 157 151 154 156 158 160 153 156 167 151 137 146 137 31 85 138 146 145 158 165 180 180 178 177 182 184
149 79 65 54 77 242 227 177 272 236 225 237 223 211 211 200 190 189 187 174 167 158 154 153 151 157 158 158 159 162 164 157 148 154 158 145 66 319 166 137 140 172 186 194 197 191 186 191 190
105 96 48 1 7 248 240 188 248 254 238 214 208 214 206 188 177 174 172 174 170 164 163 160 159 163 163 160 165 168 168 164 168 170 174 170 185 221 218 163 165 192 212 210 189 176 192 189 186
171 141 157 192 215 266 289 228 254 277 279 229 201 192 162 161 170 177 179 176 172 170 169 166 165 166 166 165 168 167 165 163 168 171 170 178 194 210 196 169 175 187 189 189 169 166 198 176 183
143 174 160 134 158 215 266 277 300 347 357 4 112 138 162 168 169 167 166 165 165 168 173 171 168 169 169 166 159 161 164 165 168 166 163 174 184 185 165 158 156 176 172 171 159 167 196 168 183
142 144 109 124 149 227 281 267 253 276 278 278 205 199 205 162 161 167 162 160 164 169 167 158 158 167 164 161 165 166 170 167 162 159 170 177 177 162 149 139 170 183 178 162 150 165 184 163 191
106 106 115 121 152 159 231 263 231 217 217 211 214 204 183 171 176 183 177 165 157 151 149 148 152 152 155 166 164 156 163 162 162 172 183 184 179 167 168 181 190 204 198 176 157 185 180 177 192
161 163 148 149 203 172 176 262 276 220 224 205 203 193 177 174 163 153 163 154 148 152 152 153 159 163 171 172 160 158 166 167 172 183 190 184 181 178 172 170 179 213 206 190 183 200 195 193 202